Location: Gugi
(45.4667°N, 11.1000°E)
Time: 21:21:21
(UTC+00:00)

ERBS - Pass Details

Date: 17 November 2019
Orbit: 411 x 430 km, 57.0° (Epoch: 08 December)

Event Time Altitude Azimuth Distance (km) Brightness Sun altitude
Rises 16:59:34 0° 235° (SW) 2,336 7.4 -13.3°
Reaches altitude 10° 17:01:39 10° 238° (WSW) 1,479 6.2 -13.6°
Maximum altitude 17:04:56 67° 321° (NW) 453 2.4 -14.2°
Enters shadow 17:06:46 24° 40° (NE) 910 3.5 -14.5°
